Regional Weather Roundup
Issued by NWS

Home | Current Version | Previous Version | Text Only | Print | Product List | Glossary Off
Versions: 1 2 3 4 5 6 7 8 9 10 11 12 13 14 15 16 17 18 19 20 21 22 23 24 25 26 27 28 29 30 31 32 33 34 35 36 37 38 39 40 41 42 43 44 45 46 47 48 49 50

000
ASUS44 KMEG 251410
RWRTN
TENNESSEE HOURLY STATE WEATHER ROUNDUP
NATIONAL WEATHER SERVICE MEMPHIS TN
900 AM CDT MON JUL 25 2016

TNZ002-004-019-021-049-052-054-088>092-251500-
WEST TENNESSEE

CITY           SKY/WX    TMP DP  RH WIND       PRES   REMARKS
MEMPHIS INTL   MOSUNNY   86  76  71 S7        30.01S HX  96
NWS MEMPHIS      N/A     84 N/A N/A MISG        N/A
JACKSON        SUNNY     84  77  79 CALM      30.03R HX  94
DYERSBURG      SUNNY     82  75  78 MISG      30.01S
UNION CITY     SUNNY     82  79  89 NW5       30.02R HX  93
PARIS          SUNNY     82  75  78 S6        30.03S
LEXINGTON      SUNNY     82  75  78 S3        30.03S
$$

TNZ008-025-027-028-033-062-065-066-251500-
NORTH MIDDLE TENNESSEE

CITY           SKY/WX    TMP DP  RH WIND       PRES   REMARKS
NASHVILLE      PTSUNNY   85  73  67 SE6       30.04F HX  91
CLARKSVILLE    MOSUNNY   83  74  74 S3        30.03R
SMYRNA         SUNNY     85  75  71 SW6       30.05F HX  93
COOKEVILLE     SUNNY     84  75  74 VRB5      30.08S HX  92
CROSSVILLE     SUNNY     80  71  74 VRB5      30.15R
$$

TNZ061-075-076-078-094-096-097-251500-
SOUTH MIDDLE TENNESSEE

CITY           SKY/WX    TMP DP  RH WIND       PRES   REMARKS
FAYETTEVILLE   SUNNY     82  75  78 S8        30.09S
TULLAHOMA      SUNNY     84  73  70 S6        30.10S HX  91
WINCHESTER     SUNNY     86  73  66 CALM      30.09F HX  93
MCMINNVILLE    SUNNY     86  77  74 CALM      30.09F HX  97
COLUMBIA       SUNNY     88  86  94 S5        30.04F HX 116
SHELBYVILLE    SUNNY     84  75  74 S5        30.08F HX  92
$$

TNZ017-018-042-046-047-251500-
NORTHEAST TENNESSEE

CITY           SKY/WX    TMP DP  RH WIND       PRES   REMARKS
TRI CITIES     MOSUNNY   82  70  66 CALM      30.13S
ELIZABETHTON   MOSUNNY   81  72  74 CALM      30.13F
$$

TNZ012-013-036-069-073-074-251500-
CENTRAL EAST TENNESSEE

CITY           SKY/WX    TMP DP  RH WIND       PRES   REMARKS
KNOXVILLE      MOSUNNY   85  71  63 VRB5      30.09S HX  90
OAK RIDGE      SUNNY     84  72  67 VRB3      30.10F
GATLINBURG     SUNNY     82  70  65 CALM      30.09F
MORRISTOWN     MOSUNNY   84  72  65 W7        30.11S
$$

TNZ083-085-099-251500-
SOUTHEAST TENNESSEE

CITY           SKY/WX    TMP DP  RH WIND       PRES   REMARKS
CHATTANOOGA    MOSUNNY   84  73  69 CALM      30.09S HX  90
$$

SKY/WX REPORTED AS FAIR MEANS FEW OR NO CLOUDS BELOW
12 THOUSAND FEET.





USA.gov is the U.S. government's official web portal to all federal, state and local government web resources and services.